VTK8503 UUWW-URWI

Flight info

Callsign VTK8503
Flight time 3h 21m
Altitude 35000
Route TOGM3Y TOGMO M56 ABAGI B105 NIMTA/K0845F360 B105 NATIT DCT MOLED DCT LIDUS G242 ZG DCT ITAKA DCT OBBUD DCT AMKOL DCT GOTIK DCT MEMZA A962 OKARU N82 UMSUR A964 KISEL DCT
Aircraft A320/M-SDE3FGHIRWY/LB1

Departure

Time 2026-04-28 13:25
Airport Vnukovo International Airport (UUWW)

Arrival

Time 2026-04-28 16:46
Airport Elista Airport (URWI)
Time Latitude Longitude Altitude Speed Heading
2026-04-28 12:38 55.60020 37.28005 680 ft 0 kts 18°
2026-04-28 13:16 55.60032 37.28012 678 ft 3 kts 18°
2026-04-28 13:16 55.60051 37.28023 680 ft 7 kts 19°
2026-04-28 13:16 55.60073 37.28068 677 ft 4 kts 71°
2026-04-28 13:16 55.60074 37.28138 680 ft 5 kts 90°
2026-04-28 13:17 55.60078 37.28220 679 ft 6 kts 84°
2026-04-28 13:17 55.60082 37.28296 679 ft 6 kts 84°
2026-04-28 13:17 55.60087 37.28375 679 ft 8 kts 84°
2026-04-28 13:17 55.60103 37.28449 677 ft 8 kts 54°
2026-04-28 13:18 55.60132 37.28506 679 ft 5 kts 47°
2026-04-28 13:18 55.60167 37.28571 678 ft 6 kts 46°
2026-04-28 13:18 55.60198 37.28628 679 ft 10 kts 46°
2026-04-28 13:18 55.60210 37.28673 679 ft 4 kts 85°
2026-04-28 13:19 55.60204 37.28709 679 ft 2 kts 120°
2026-04-28 13:19 55.60182 37.28756 679 ft 8 kts 132°
2026-04-28 13:19 55.60148 37.28819 677 ft 7 kts 137°
2026-04-28 13:19 55.60117 37.28862 679 ft 7 kts 149°
2026-04-28 13:20 55.60063 37.28891 679 ft 7 kts 166°
2026-04-28 13:20 55.60048 37.28898 680 ft 0 kts 166°
2026-04-28 13:20 55.60036 37.28902 681 ft 6 kts 167°
2026-04-28 13:20 55.60020 37.28909 683 ft 0 kts 167°
2026-04-28 13:21 55.59998 37.28918 684 ft 7 kts 167°
2026-04-28 13:21 55.59938 37.28944 683 ft 0 kts 166°
2026-04-28 13:22 55.59936 37.28945 684 ft 2 kts 166°
2026-04-28 13:22 55.59888 37.28967 685 ft 7 kts 165°
2026-04-28 13:22 55.59854 37.28982 686 ft 7 kts 165°
2026-04-28 13:23 55.59803 37.28990 687 ft 6 kts 202°
2026-04-28 13:23 55.59784 37.28943 687 ft 0 kts 247°
2026-04-28 13:24 55.59784 37.28941 687 ft 5 kts 247°
2026-04-28 13:24 55.59683 37.28489 683 ft 75 kts 248°
2026-04-28 13:24 55.59410 37.27271 671 ft 134 kts 248°
2026-04-28 13:24 55.59010 37.25499 819 ft 165 kts 248°
2026-04-28 13:25 55.58500 37.23642 1442 ft 176 kts 245°
2026-04-28 13:25 55.57846 37.21665 1896 ft 195 kts 243°
2026-04-28 13:25 55.57052 37.19572 2199 ft 218 kts 241°
2026-04-28 13:25 55.56135 37.17345 2542 ft 232 kts 240°
2026-04-28 13:26 55.55143 37.14977 2820 ft 240 kts 240°
2026-04-28 13:26 55.54151 37.12636 3075 ft 240 kts 242°
2026-04-28 13:26 55.53454 37.10135 3334 ft 214 kts 263°
2026-04-28 13:26 55.53392 37.07605 3600 ft 205 kts 284°
2026-04-28 13:27 55.53885 37.05284 3865 ft 202 kts 303°
2026-04-28 13:27 55.54844 37.03492 4230 ft 204 kts 322°
2026-04-28 13:27 55.56156 37.02446 4699 ft 214 kts 342°
2026-04-28 13:27 55.57692 37.02314 4928 ft 221 kts 355°
2026-04-28 13:28 55.59227 37.02397 5172 ft 222 kts 354°
2026-04-28 13:28 55.60778 37.02470 5414 ft 223 kts 354°
2026-04-28 13:28 55.62332 37.02669 5647 ft 230 kts
2026-04-28 13:28 55.63719 37.04240 5892 ft 253 kts 45°
2026-04-28 13:29 55.64395 37.07212 6103 ft 271 kts 77°
2026-04-28 13:29 55.64541 37.10626 6189 ft 275 kts 85°
2026-04-28 13:29 55.64514 37.14015 6267 ft 277 kts 89°
2026-04-28 13:29 55.64138 37.17378 6338 ft 282 kts 110°
2026-04-28 13:30 55.63173 37.20448 6414 ft 283 kts 129°
2026-04-28 13:30 55.61816 37.22864 6496 ft 280 kts 147°
2026-04-28 13:30 55.60197 37.24817 6580 ft 280 kts 149°
2026-04-28 13:30 55.58584 37.26738 6645 ft 280 kts 149°
2026-04-28 13:31 55.55344 37.30579 6792 ft 280 kts 150°
2026-04-28 13:31 55.53727 37.32490 6878 ft 281 kts 150°
2026-04-28 13:31 55.52103 37.34408 6969 ft 280 kts 150°
2026-04-28 13:32 55.50484 37.36332 7102 ft 281 kts 149°
2026-04-28 13:32 55.48892 37.38339 7234 ft 282 kts 147°
2026-04-28 13:32 55.47308 37.40408 7358 ft 283 kts 147°
2026-04-28 13:32 55.45739 37.42477 7494 ft 283 kts 146°
2026-04-28 13:33 55.44137 37.44589 7628 ft 283 kts 147°
2026-04-28 13:33 55.42553 37.46665 7765 ft 284 kts 147°
2026-04-28 13:33 55.40962 37.48735 7888 ft 285 kts 147°
2026-04-28 13:33 55.39369 37.50796 8029 ft 285 kts 147°
2026-04-28 13:34 55.37768 37.52863 8159 ft 286 kts 147°
2026-04-28 13:34 55.36167 37.54930 8299 ft 286 kts 147°
2026-04-28 13:34 55.34562 37.56994 8434 ft 286 kts 148°
2026-04-28 13:34 55.32953 37.59051 8565 ft 287 kts 148°
2026-04-28 13:35 55.31332 37.61115 8706 ft 287 kts 148°
2026-04-28 13:35 55.29697 37.63193 8842 ft 287 kts 148°
2026-04-28 13:35 55.28074 37.65258 8977 ft 287 kts 148°
2026-04-28 13:35 55.26451 37.67329 9118 ft 291 kts 148°
2026-04-28 13:36 55.24814 37.69420 9393 ft 293 kts 148°
2026-04-28 13:36 55.23161 37.71528 9749 ft 294 kts 148°
2026-04-28 13:36 55.21498 37.73641 10069 ft 296 kts 148°
2026-04-28 13:36 55.19836 37.75755 10403 ft 297 kts 148°
2026-04-28 13:37 55.18157 37.77888 10740 ft 299 kts 148°
2026-04-28 13:37 55.16508 37.80103 11079 ft 302 kts 140°
2026-04-28 13:37 55.15014 37.82776 11434 ft 308 kts 136°
2026-04-28 13:37 55.13502 37.85531 11816 ft 311 kts 136°
2026-04-28 13:38 55.12003 37.88254 12201 ft 312 kts 135°
2026-04-28 13:38 55.10493 37.90997 12590 ft 314 kts 135°
2026-04-28 13:38 55.08967 37.93770 12975 ft 320 kts 135°
2026-04-28 13:38 55.07417 37.96586 13377 ft 322 kts 135°
2026-04-28 13:39 55.05862 37.99410 13752 ft 324 kts 135°
2026-04-28 13:39 55.04296 38.02257 14085 ft 326 kts 135°
2026-04-28 13:39 55.02704 38.05134 14442 ft 332 kts 135°
2026-04-28 13:39 55.01090 38.08034 14767 ft 334 kts 135°
2026-04-28 13:40 54.99464 38.10951 15109 ft 336 kts 135°
2026-04-28 13:40 54.97832 38.13871 15453 ft 337 kts 135°
2026-04-28 13:40 54.96187 38.16806 15781 ft 339 kts 135°
2026-04-28 13:40 54.94537 38.19748 16127 ft 340 kts 135°
2026-04-28 13:41 54.92876 38.22704 16475 ft 342 kts 135°
2026-04-28 13:41 54.91210 38.25664 16827 ft 344 kts 135°
2026-04-28 13:41 54.89532 38.28635 17187 ft 345 kts 134°
2026-04-28 13:41 54.87848 38.31622 17544 ft 347 kts 134°
2026-04-28 13:42 54.86160 38.34625 17908 ft 349 kts 133°
2026-04-28 13:42 54.84653 38.37936 18243 ft 351 kts 121°
2026-04-28 13:42 54.83422 38.41704 18582 ft 359 kts 117°
2026-04-28 13:42 54.82198 38.45533 18908 ft 367 kts 118°
2026-04-28 13:43 54.80935 38.49450 19239 ft 375 kts 118°
2026-04-28 13:43 54.79649 38.53407 19562 ft 381 kts 118°
2026-04-28 13:43 54.78342 38.57424 19903 ft 384 kts 118°
2026-04-28 13:43 54.76853 38.61281 20240 ft 387 kts 129°
2026-04-28 13:44 54.74988 38.64632 20595 ft 390 kts 140°
2026-04-28 13:44 54.72779 38.67401 20931 ft 395 kts 150°
2026-04-28 13:44 54.70387 38.69881 21131 ft 406 kts 150°
2026-04-28 13:44 54.67933 38.72423 21279 ft 418 kts 150°
2026-04-28 13:45 54.65380 38.75071 21600 ft 425 kts 150°
2026-04-28 13:45 54.63703 38.76812 21881 ft 427 kts 150°
2026-04-28 13:45 54.61141 38.79467 22324 ft 430 kts 150°
2026-04-28 13:45 54.58575 38.82131 22773 ft 432 kts 150°
2026-04-28 13:46 54.55996 38.84810 23207 ft 434 kts 150°
2026-04-28 13:46 54.53398 38.87510 23591 ft 436 kts 150°
2026-04-28 13:46 54.50800 38.90205 23954 ft 438 kts 150°
2026-04-28 13:46 54.48182 38.92915 24317 ft 439 kts 150°
2026-04-28 13:47 54.45554 38.95623 24671 ft 441 kts 150°
2026-04-28 13:47 54.42952 38.98414 25013 ft 443 kts 145°
2026-04-28 13:47 54.40585 39.01834 25331 ft 446 kts 135°
2026-04-28 13:47 54.38575 39.05899 25653 ft 448 kts 125°
2026-04-28 13:48 54.36981 39.10477 25960 ft 450 kts 115°
2026-04-28 13:48 54.35733 39.15499 26262 ft 451 kts 112°
2026-04-28 13:48 54.34544 39.20472 26562 ft 453 kts 112°
2026-04-28 13:48 54.33340 39.25489 26856 ft 455 kts 112°
2026-04-28 13:49 54.32127 39.30528 27139 ft 458 kts 112°
2026-04-28 13:49 54.30908 39.35562 27415 ft 460 kts 112°
2026-04-28 13:49 54.29672 39.40622 27693 ft 461 kts 113°
2026-04-28 13:49 54.28427 39.45688 27963 ft 463 kts 113°
2026-04-28 13:50 54.27173 39.50785 28221 ft 465 kts 113°
2026-04-28 13:50 54.25921 39.55887 28489 ft 467 kts 113°
2026-04-28 13:50 54.24662 39.61024 28731 ft 468 kts 113°
2026-04-28 13:50 54.23407 39.66152 28957 ft 470 kts 114°
2026-04-28 13:51 54.22138 39.71327 29198 ft 472 kts 114°
2026-04-28 13:51 54.20862 39.76501 29419 ft 474 kts 114°
2026-04-28 13:51 54.19580 39.81677 29639 ft 475 kts 114°
2026-04-28 13:51 54.18284 39.86898 29848 ft 477 kts 114°
2026-04-28 13:52 54.16987 39.92112 30061 ft 477 kts 114°
2026-04-28 13:52 54.15689 39.97322 30291 ft 477 kts 114°
2026-04-28 13:52 54.14388 40.02523 30501 ft 477 kts 115°
2026-04-28 13:52 54.13066 40.07792 30711 ft 477 kts 115°
2026-04-28 13:53 54.11808 40.12958 30914 ft 478 kts 111°
2026-04-28 13:53 54.10813 40.18436 31122 ft 480 kts 108°
2026-04-28 13:53 54.09872 40.23902 31324 ft 480 kts 108°
2026-04-28 13:53 54.08927 40.29375 31526 ft 481 kts 108°
2026-04-28 13:54 54.07982 40.34828 31730 ft 481 kts 108°
2026-04-28 13:54 54.07028 40.40305 31933 ft 482 kts 108°
2026-04-28 13:54 54.06073 40.45754 32142 ft 482 kts 108°
2026-04-28 13:54 54.05112 40.51232 32343 ft 483 kts 108°
2026-04-28 13:55 54.04147 40.56716 32541 ft 483 kts 109°
2026-04-28 13:55 54.03178 40.62200 32745 ft 484 kts 109°
2026-04-28 13:55 54.02209 40.67675 32940 ft 484 kts 109°
2026-04-28 13:55 54.01233 40.73167 33139 ft 485 kts 109°
2026-04-28 13:56 54.00252 40.78659 33339 ft 485 kts 109°
2026-04-28 13:56 53.99271 40.84135 33533 ft 486 kts 109°
2026-04-28 13:56 53.98286 40.89633 33733 ft 486 kts 109°
2026-04-28 13:56 53.97299 40.95133 33909 ft 487 kts 109°
2026-04-28 13:57 53.96296 41.00708 34068 ft 487 kts 109°
2026-04-28 13:57 53.95307 41.06214 34249 ft 487 kts 109°
2026-04-28 13:57 53.94360 41.11739 34410 ft 488 kts 108°
2026-04-28 13:57 53.93456 41.17276 34583 ft 488 kts 108°
2026-04-28 13:58 53.92571 41.22842 34742 ft 488 kts 107°
2026-04-28 13:58 53.91691 41.28387 34834 ft 488 kts 108°
2026-04-28 13:58 53.89894 41.39468 34841 ft 487 kts 108°
2026-04-28 13:59 53.88048 41.50532 34837 ft 487 kts 108°
2026-04-28 13:59 53.86187 41.61565 34844 ft 487 kts 108°
2026-04-28 14:00 53.84315 41.72597 34846 ft 487 kts 109°
2026-04-28 14:00 53.82421 41.83697 34845 ft 487 kts 109°
2026-04-28 14:01 53.80526 41.94721 34846 ft 487 kts 109°
2026-04-28 14:01 53.78625 42.05733 34840 ft 488 kts 109°
2026-04-28 14:02 53.76713 42.16726 34840 ft 488 kts 109°
2026-04-28 14:02 53.74791 42.27707 34836 ft 488 kts 109°
2026-04-28 14:03 53.72833 42.38756 34836 ft 488 kts 110°
2026-04-28 14:03 53.70881 42.49753 34837 ft 488 kts 110°
2026-04-28 14:04 53.69872 42.55162 33353 ft 474 kts 111°
2026-04-28 14:04 53.68500 42.60103 33551 ft 463 kts 121°
2026-04-28 14:04 53.66674 42.64553 33745 ft 458 kts 131°
2026-04-28 14:04 53.64448 42.68351 33957 ft 456 kts 141°
2026-04-28 14:05 53.61888 42.71475 34152 ft 454 kts 149°
2026-04-28 14:05 53.59081 42.73897 34353 ft 453 kts 157°
2026-04-28 14:05 53.56180 42.76014 34554 ft 453 kts 157°
2026-04-28 14:05 53.53257 42.78132 34756 ft 453 kts 157°
2026-04-28 14:06 53.50352 42.80224 34955 ft 452 kts 157°
2026-04-28 14:06 53.47463 42.82300 35018 ft 453 kts 157°
2026-04-28 14:06 53.41663 42.86477 35023 ft 453 kts 157°
2026-04-28 14:07 53.35867 42.90623 35019 ft 452 kts 157°
2026-04-28 14:07 53.30082 42.94753 35017 ft 452 kts 157°
2026-04-28 14:08 53.24291 42.98874 35018 ft 452 kts 157°
2026-04-28 14:08 53.19483 43.02277 35014 ft 452 kts 157°
2026-04-28 14:09 53.12714 43.07050 35019 ft 452 kts 157°
2026-04-28 14:09 53.06962 43.11276 35011 ft 452 kts 156°
2026-04-28 14:10 53.01234 43.15595 35009 ft 452 kts 156°
2026-04-28 14:10 52.95510 43.19884 35012 ft 452 kts 156°
2026-04-28 14:11 52.89772 43.24137 35006 ft 452 kts 156°
2026-04-28 14:11 52.84029 43.28363 35011 ft 452 kts 156°
2026-04-28 14:12 52.78242 43.32596 35016 ft 452 kts 156°
2026-04-28 14:12 52.72486 43.36795 35011 ft 452 kts 156°
2026-04-28 14:13 52.69618 43.38889 36477 ft 452 kts 160°
2026-04-28 14:13 52.66738 43.40997 36474 ft 453 kts 162°
2026-04-28 14:13 52.60977 43.45180 36363 ft 451 kts 162°
2026-04-28 14:14 52.58114 43.47263 35752 ft 451 kts 162°
2026-04-28 14:14 52.56213 43.48650 35335 ft 451 kts 162°
2026-04-28 14:14 52.53349 43.50732 35023 ft 449 kts 163°
2026-04-28 14:14 52.50493 43.52798 34892 ft 449 kts 163°
2026-04-28 14:15 52.44764 43.56941 34936 ft 450 kts 163°
2026-04-28 14:15 52.38992 43.61107 34939 ft 450 kts 163°
2026-04-28 14:16 52.33271 43.65205 34945 ft 449 kts 163°
2026-04-28 14:16 52.27538 43.69281 34949 ft 449 kts 163°
2026-04-28 14:17 52.21816 43.73356 34949 ft 449 kts 163°
2026-04-28 14:17 52.16098 43.77436 34948 ft 449 kts 163°
2026-04-28 14:18 52.10373 43.81501 34951 ft 449 kts 163°
2026-04-28 14:18 52.04648 43.85559 34953 ft 449 kts 163°
2026-04-28 14:19 51.98930 43.89596 34964 ft 449 kts 163°
2026-04-28 14:19 51.93179 43.93655 34967 ft 448 kts 163°
2026-04-28 14:20 51.87451 43.97678 34970 ft 448 kts 164°
2026-04-28 14:20 51.81728 44.01660 34974 ft 448 kts 164°
2026-04-28 14:21 51.76002 44.05640 34975 ft 448 kts 164°
2026-04-28 14:21 51.70297 44.09623 34985 ft 447 kts 163°
2026-04-28 14:22 51.64574 44.13606 34987 ft 447 kts 164°
2026-04-28 14:22 51.58829 44.17587 34985 ft 447 kts 164°
2026-04-28 14:23 51.53117 44.21528 34991 ft 446 kts 164°
2026-04-28 14:23 51.47412 44.25444 34990 ft 446 kts 164°
2026-04-28 14:24 51.41712 44.29354 34997 ft 445 kts 164°
2026-04-28 14:24 51.36014 44.33253 35001 ft 445 kts 164°
2026-04-28 14:25 51.30326 44.37140 35003 ft 445 kts 164°
2026-04-28 14:25 51.24635 44.41018 35007 ft 444 kts 164°
2026-04-28 14:26 51.18941 44.44843 35008 ft 441 kts 168°
2026-04-28 14:26 51.13071 44.46583 35013 ft 423 kts 186°
2026-04-28 14:27 51.07207 44.46087 35020 ft 419 kts 189°
2026-04-28 14:27 51.01386 44.45529 35024 ft 419 kts 189°
2026-04-28 14:28 50.95567 44.44989 35030 ft 419 kts 189°
2026-04-28 14:28 50.89748 44.44455 35240 ft 419 kts 189°
2026-04-28 14:29 50.86847 44.44192 35416 ft 419 kts 189°
2026-04-28 14:29 50.83934 44.43930 35580 ft 419 kts 189°
2026-04-28 14:29 50.81025 44.43664 35738 ft 419 kts 189°
2026-04-28 14:29 50.78116 44.43394 35881 ft 419 kts 189°
2026-04-28 14:30 50.75211 44.43122 36016 ft 419 kts 189°
2026-04-28 14:30 50.72296 44.42847 36042 ft 419 kts 189°
2026-04-28 14:30 50.66468 44.42301 36046 ft 419 kts 189°
2026-04-28 14:31 50.60613 44.41754 36043 ft 419 kts 189°
2026-04-28 14:31 50.54788 44.41219 36043 ft 419 kts 189°
2026-04-28 14:32 50.48967 44.40691 36043 ft 419 kts 189°
2026-04-28 14:32 50.43154 44.40164 36043 ft 419 kts 189°
2026-04-28 14:33 50.37328 44.39632 36043 ft 419 kts 189°
2026-04-28 14:33 50.31515 44.39109 36043 ft 419 kts 189°
2026-04-28 14:34 50.22787 44.38312 36041 ft 419 kts 189°
2026-04-28 14:35 50.16975 44.37777 36045 ft 419 kts 189°
2026-04-28 14:35 50.11161 44.37266 36044 ft 418 kts 189°
2026-04-28 14:36 50.05347 44.36742 36049 ft 418 kts 189°
2026-04-28 14:36 49.99542 44.36218 36049 ft 418 kts 189°
2026-04-28 14:37 49.93728 44.35694 36043 ft 418 kts 189°
2026-04-28 14:37 49.87928 44.35171 36042 ft 418 kts 189°
2026-04-28 14:38 49.82118 44.34656 36055 ft 418 kts 189°
2026-04-28 14:38 49.76267 44.34148 36051 ft 418 kts 189°
2026-04-28 14:39 49.70468 44.33633 36065 ft 418 kts 189°
2026-04-28 14:39 49.64658 44.33114 36070 ft 418 kts 189°
2026-04-28 14:40 49.58846 44.32730 36069 ft 422 kts 183°
2026-04-28 14:40 49.53040 44.34818 36070 ft 439 kts 164°
2026-04-28 14:41 49.47389 44.38435 36070 ft 440 kts 165°
2026-04-28 14:41 49.41732 44.42038 36067 ft 440 kts 165°
2026-04-28 14:42 49.36073 44.45618 36072 ft 440 kts 165°
2026-04-28 14:42 49.30406 44.49205 36078 ft 441 kts 165°
2026-04-28 14:43 49.24737 44.52799 36081 ft 441 kts 165°
2026-04-28 14:43 49.19062 44.56365 36087 ft 441 kts 165°
2026-04-28 14:44 49.14306 44.59346 36090 ft 441 kts 165°
2026-04-28 14:44 49.08630 44.62899 36087 ft 441 kts 165°
2026-04-28 14:45 49.02960 44.66441 36090 ft 441 kts 165°
2026-04-28 14:45 48.97283 44.69986 36099 ft 441 kts 165°
2026-04-28 14:46 48.91605 44.73510 36099 ft 441 kts 165°
2026-04-28 14:46 48.85926 44.77018 36102 ft 441 kts 165°
2026-04-28 14:47 48.80411 44.81246 36100 ft 448 kts 157°
2026-04-28 14:47 48.75003 44.85924 36106 ft 447 kts 157°
2026-04-28 14:48 48.69547 44.90591 36113 ft 447 kts 158°
2026-04-28 14:48 48.64138 44.95212 36124 ft 447 kts 157°
2026-04-28 14:49 48.58729 44.99838 36118 ft 447 kts 158°
2026-04-28 14:49 48.53316 45.04454 36119 ft 447 kts 158°
2026-04-28 14:50 48.47903 45.09058 36116 ft 446 kts 158°
2026-04-28 14:50 48.42494 45.13641 36116 ft 446 kts 158°
2026-04-28 14:51 48.37081 45.18218 36119 ft 446 kts 158°
2026-04-28 14:51 48.31677 45.22784 36124 ft 446 kts 158°
2026-04-28 14:52 48.26264 45.27336 36124 ft 445 kts 158°
2026-04-28 14:52 48.20826 45.31895 36129 ft 445 kts 158°
2026-04-28 14:53 48.15426 45.36411 36133 ft 444 kts 158°
2026-04-28 14:53 48.10036 45.40921 36134 ft 444 kts 158°
2026-04-28 14:54 48.04639 45.45420 36137 ft 443 kts 158°
2026-04-28 14:54 47.99250 45.49892 36140 ft 443 kts 158°
2026-04-28 14:55 47.93864 45.54355 36149 ft 442 kts 158°
2026-04-28 14:55 47.88494 45.58813 36146 ft 442 kts 158°
2026-04-28 14:56 47.83113 45.63264 36148 ft 442 kts 158°
2026-04-28 14:56 47.77697 45.67699 36145 ft 441 kts 158°
2026-04-28 14:57 47.72331 45.72103 36145 ft 441 kts 158°
2026-04-28 14:57 47.66965 45.76507 36146 ft 441 kts 158°
2026-04-28 14:58 47.61597 45.80909 36148 ft 440 kts 159°
2026-04-28 14:58 47.56230 45.85285 36149 ft 440 kts 159°
2026-04-28 14:59 47.50861 45.89661 36153 ft 440 kts 159°
2026-04-28 14:59 47.45527 45.93995 36152 ft 440 kts 159°
2026-04-28 15:00 47.40150 45.98338 36150 ft 439 kts 159°
2026-04-28 15:00 47.34778 46.02663 36151 ft 439 kts 159°
2026-04-28 15:01 47.29372 46.07024 36150 ft 439 kts 159°
2026-04-28 15:01 47.24057 46.11310 36153 ft 439 kts 159°
2026-04-28 15:02 47.18663 46.15638 36156 ft 438 kts 159°
2026-04-28 15:02 47.13299 46.19931 36159 ft 438 kts 159°
2026-04-28 15:03 47.07964 46.24243 36157 ft 441 kts 155°
2026-04-28 15:03 47.05482 46.26975 36160 ft 451 kts 144°
2026-04-28 15:03 47.03320 46.30386 36152 ft 462 kts 134°
2026-04-28 15:04 46.99795 46.38347 36160 ft 467 kts 129°
2026-04-28 15:04 46.96311 46.46380 36158 ft 467 kts 130°
2026-04-28 15:05 46.92781 46.54452 36163 ft 467 kts 130°
2026-04-28 15:05 46.89273 46.62447 36175 ft 467 kts 130°
2026-04-28 15:06 46.85758 46.70433 36176 ft 468 kts 130°
2026-04-28 15:06 46.82239 46.78440 36171 ft 468 kts 130°
2026-04-28 15:07 46.78718 46.86426 36170 ft 468 kts 130°
2026-04-28 15:07 46.75192 46.94398 36167 ft 468 kts 130°
2026-04-28 15:08 46.71662 47.02351 36170 ft 468 kts 130°
2026-04-28 15:08 46.68126 47.10312 36175 ft 468 kts 130°
2026-04-28 15:09 46.64611 47.18380 36174 ft 469 kts 129°
2026-04-28 15:09 46.61140 47.26394 36176 ft 469 kts 129°
2026-04-28 15:10 46.57647 47.34402 36181 ft 468 kts 130°
2026-04-28 15:10 46.54143 47.42383 36180 ft 468 kts 130°
2026-04-28 15:11 46.50636 47.50319 36183 ft 468 kts 130°
2026-04-28 15:11 46.47115 47.58267 36194 ft 468 kts 130°
2026-04-28 15:12 46.43598 47.66217 36199 ft 468 kts 130°
2026-04-28 15:12 46.40080 47.74154 36201 ft 468 kts 130°
2026-04-28 15:13 46.37132 47.80790 36204 ft 468 kts 130°
2026-04-28 15:13 46.33610 47.88690 36211 ft 467 kts 130°
2026-04-28 15:14 46.30076 47.96576 36210 ft 467 kts 129°
2026-04-28 15:14 46.27456 48.05306 36215 ft 483 kts 109°
2026-04-28 15:15 46.26022 48.14811 36214 ft 484 kts 108°
2026-04-28 15:15 46.24576 48.24319 36210 ft 484 kts 108°
2026-04-28 15:16 46.23098 48.33870 36207 ft 484 kts 108°
2026-04-28 15:16 46.21622 48.43344 36206 ft 484 kts 108°
2026-04-28 15:17 46.19451 48.52355 36200 ft 468 kts 127°
2026-04-28 15:17 46.17617 48.56150 36194 ft 457 kts 138°
2026-04-28 15:17 46.15379 48.59331 36191 ft 446 kts 149°
2026-04-28 15:18 46.10122 48.63620 36187 ft 426 kts 168°
2026-04-28 15:18 46.04464 48.65953 36181 ft 423 kts 171°
2026-04-28 15:19 45.98782 48.68231 36183 ft 424 kts 171°
2026-04-28 15:19 45.93094 48.70510 36177 ft 424 kts 171°
2026-04-28 15:20 45.87408 48.72786 36176 ft 425 kts 171°
2026-04-28 15:20 45.81707 48.75066 36183 ft 425 kts 171°
2026-04-28 15:21 45.75972 48.77362 36184 ft 425 kts 171°
2026-04-28 15:21 45.70270 48.79628 36181 ft 426 kts 171°
2026-04-28 15:22 45.64553 48.81901 36188 ft 426 kts 171°
2026-04-28 15:22 45.58846 48.84169 36199 ft 426 kts 171°
2026-04-28 15:23 45.53138 48.86431 36200 ft 426 kts 170°
2026-04-28 15:23 45.47415 48.88692 36202 ft 426 kts 170°
2026-04-28 15:24 45.41707 48.90932 36202 ft 426 kts 170°
2026-04-28 15:24 45.35991 48.93172 36206 ft 426 kts 170°
2026-04-28 15:25 45.30274 48.95421 36207 ft 426 kts 170°
2026-04-28 15:25 45.24530 48.97686 36213 ft 426 kts 170°
2026-04-28 15:26 45.18814 48.99912 36213 ft 426 kts 170°
2026-04-28 15:26 45.13102 49.02120 36214 ft 425 kts 170°
2026-04-28 15:27 45.07392 49.04340 36211 ft 425 kts 170°
2026-04-28 15:27 45.01684 49.06561 36210 ft 426 kts 170°
2026-04-28 15:28 44.95978 49.08776 36209 ft 426 kts 170°
2026-04-28 15:28 44.90263 49.10986 36208 ft 426 kts 170°
2026-04-28 15:29 44.84544 49.13196 36207 ft 426 kts 170°
2026-04-28 15:29 44.78825 49.15391 36204 ft 426 kts 170°
2026-04-28 15:30 44.73105 49.17579 36206 ft 426 kts 170°
2026-04-28 15:30 44.67352 49.19784 36204 ft 426 kts 170°
2026-04-28 15:31 44.61634 49.21974 36199 ft 426 kts 170°
2026-04-28 15:31 44.55912 49.24170 36195 ft 426 kts 170°
2026-04-28 15:32 44.50179 49.26357 36195 ft 427 kts 170°
2026-04-28 15:32 44.44451 49.28530 36197 ft 427 kts 170°
2026-04-28 15:33 44.38706 49.30693 36194 ft 428 kts 170°
2026-04-28 15:33 44.32964 49.32863 36198 ft 428 kts 170°
2026-04-28 15:34 44.27173 49.35062 36201 ft 429 kts 170°
2026-04-28 15:34 44.21403 49.37240 36200 ft 429 kts 170°
2026-04-28 15:35 44.15635 49.39414 36200 ft 430 kts 170°
2026-04-28 15:35 44.06968 49.42673 36205 ft 430 kts 171°
2026-04-28 15:36 44.01192 49.44831 36200 ft 430 kts 171°
2026-04-28 15:36 43.95394 49.46454 36192 ft 418 kts 187°
2026-04-28 15:37 43.92564 49.45873 36194 ft 407 kts 202°
2026-04-28 15:37 43.90020 49.44252 36192 ft 400 kts 217°
2026-04-28 15:37 43.87935 49.41766 36193 ft 396 kts 231°
2026-04-28 15:37 43.86839 49.39690 36193 ft 395 kts 240°
2026-04-28 15:38 43.85541 49.34944 36192 ft 397 kts 258°
2026-04-28 15:38 43.85093 49.31214 36195 ft 398 kts 258°
2026-04-28 15:38 43.84184 49.23573 36201 ft 400 kts 258°
2026-04-28 15:39 43.83268 49.15952 36204 ft 401 kts 258°
2026-04-28 15:39 43.82343 49.08327 36212 ft 402 kts 258°
2026-04-28 15:40 43.81408 49.00696 36218 ft 402 kts 258°
2026-04-28 15:40 43.80474 48.93055 36222 ft 402 kts 258°
2026-04-28 15:41 43.79531 48.85424 36228 ft 402 kts 258°
2026-04-28 15:41 43.78581 48.77786 36232 ft 402 kts 258°
2026-04-28 15:42 43.77624 48.70156 36228 ft 403 kts 257°
2026-04-28 15:42 43.76658 48.62533 36228 ft 403 kts 257°
2026-04-28 15:43 43.75689 48.54898 36225 ft 403 kts 257°
2026-04-28 15:43 43.74878 48.48508 36229 ft 403 kts 257°
2026-04-28 15:44 43.73905 48.40880 36226 ft 403 kts 257°
2026-04-28 15:44 43.72923 48.33257 36229 ft 403 kts 257°
2026-04-28 15:45 43.71935 48.25630 36227 ft 403 kts 257°
2026-04-28 15:45 43.70944 48.17998 36227 ft 403 kts 257°
2026-04-28 15:46 43.69945 48.10382 36229 ft 403 kts 257°
2026-04-28 15:46 43.68933 48.02764 36225 ft 403 kts 257°
2026-04-28 15:47 43.67916 47.95083 36222 ft 404 kts 257°
2026-04-28 15:47 43.66910 47.87460 36222 ft 404 kts 257°
2026-04-28 15:48 43.65890 47.79817 36224 ft 405 kts 257°
2026-04-28 15:48 43.64854 47.72182 36226 ft 405 kts 257°
2026-04-28 15:49 43.63810 47.64537 36232 ft 405 kts 257°
2026-04-28 15:49 43.62770 47.56895 36227 ft 405 kts 257°
2026-04-28 15:50 43.61737 47.49252 36229 ft 405 kts 258°
2026-04-28 15:50 43.61000 47.41522 36220 ft 407 kts 261°
2026-04-28 15:51 43.60454 47.33759 36218 ft 407 kts 261°
2026-04-28 15:51 43.59867 47.25930 36224 ft 407 kts 261°
2026-04-28 15:52 43.59218 47.18178 36226 ft 407 kts 260°
2026-04-28 15:52 43.58548 47.10428 36208 ft 407 kts 260°
2026-04-28 15:53 43.57871 47.02675 36206 ft 408 kts 260°
2026-04-28 15:53 43.57204 46.94898 36205 ft 408 kts 260°
2026-04-28 15:54 43.56535 46.87125 36202 ft 408 kts 260°
2026-04-28 15:54 43.55858 46.79357 36210 ft 408 kts 260°
2026-04-28 15:55 43.55173 46.71581 36205 ft 408 kts 260°
2026-04-28 15:55 43.54475 46.63819 36203 ft 408 kts 260°
2026-04-28 15:56 43.53775 46.56043 36195 ft 409 kts 260°
2026-04-28 15:56 43.53074 46.48227 36188 ft 409 kts 260°
2026-04-28 15:57 43.52367 46.40505 36186 ft 409 kts 260°
2026-04-28 15:57 43.51649 46.32689 36189 ft 409 kts 260°
2026-04-28 15:58 43.50932 46.24913 36185 ft 409 kts 259°
2026-04-28 15:58 43.50204 46.17133 36187 ft 410 kts 259°
2026-04-28 15:59 43.49593 46.10672 36188 ft 410 kts 259°
2026-04-28 15:59 43.49173 46.01517 36191 ft 414 kts 272°
2026-04-28 16:00 43.49846 45.93631 36200 ft 415 kts 272°
2026-04-28 16:00 43.50502 45.85737 36203 ft 414 kts 272°
2026-04-28 16:01 43.51147 45.77857 36206 ft 414 kts 272°
2026-04-28 16:01 43.51789 45.69972 36205 ft 414 kts 272°
2026-04-28 16:02 43.52427 45.62036 36206 ft 414 kts 272°
2026-04-28 16:02 43.53060 45.54156 36196 ft 414 kts 272°
2026-04-28 16:03 43.53690 45.46265 36189 ft 414 kts 272°
2026-04-28 16:03 43.54308 45.38381 36186 ft 414 kts 272°
2026-04-28 16:04 43.54615 45.34431 35687 ft 416 kts 276°
2026-04-28 16:04 43.54923 45.30458 35862 ft 418 kts 276°
2026-04-28 16:04 43.55232 45.26468 36011 ft 420 kts 276°
2026-04-28 16:04 43.55543 45.22437 36010 ft 426 kts 276°
2026-04-28 16:05 43.56161 45.14355 36010 ft 437 kts 276°
2026-04-28 16:05 43.56804 45.05866 36011 ft 446 kts 276°
2026-04-28 16:06 43.57443 44.97355 36008 ft 448 kts 275°
2026-04-28 16:06 43.58083 44.88787 36010 ft 449 kts 275°
2026-04-28 16:07 43.58714 44.80202 36008 ft 449 kts 275°
2026-04-28 16:08 43.59643 44.67361 36011 ft 449 kts 275°
2026-04-28 16:08 43.60266 44.58727 36013 ft 449 kts 275°
2026-04-28 16:09 43.61174 44.45855 36015 ft 449 kts 275°
2026-04-28 16:10 43.62068 44.33003 36016 ft 449 kts 275°
2026-04-28 16:10 43.62990 44.20135 36013 ft 449 kts 279°
2026-04-28 16:11 43.64519 44.13302 36011 ft 449 kts 296°
2026-04-28 16:11 43.68076 44.06273 36011 ft 449 kts 312°
2026-04-28 16:12 43.74423 43.96720 36005 ft 450 kts 312°
2026-04-28 16:13 43.80780 43.87086 36007 ft 450 kts 313°
2026-04-28 16:13 43.85719 43.81808 36004 ft 450 kts 332°
2026-04-28 16:14 43.91634 43.78999 36002 ft 451 kts 347°
2026-04-28 16:15 44.03867 43.75129 36003 ft 451 kts 347°
2026-04-28 16:15 44.09999 43.73183 36006 ft 452 kts 347°
2026-04-28 16:16 44.19241 43.70256 36007 ft 452 kts 347°
2026-04-28 16:17 44.28437 43.67304 36012 ft 452 kts 347°
2026-04-28 16:17 44.34575 43.65336 36014 ft 452 kts 347°
2026-04-28 16:18 44.40700 43.63376 36016 ft 452 kts 347°
2026-04-28 16:18 44.46885 43.61403 36018 ft 452 kts 347°
2026-04-28 16:19 44.52988 43.59451 36019 ft 453 kts 347°
2026-04-28 16:19 44.59167 43.57467 36020 ft 453 kts 347°
2026-04-28 16:20 44.65302 43.55501 36021 ft 453 kts 347°
2026-04-28 16:20 44.71452 43.53520 36022 ft 453 kts 347°
2026-04-28 16:21 44.77589 43.51537 36023 ft 453 kts 347°
2026-04-28 16:21 44.83730 43.49558 36023 ft 453 kts 347°
2026-04-28 16:22 44.89881 43.47564 36025 ft 453 kts 347°
2026-04-28 16:22 44.96021 43.45575 36025 ft 453 kts 347°
2026-04-28 16:23 45.02205 43.43580 36025 ft 453 kts 347°
2026-04-28 16:23 45.08360 43.41566 35824 ft 453 kts 346°
2026-04-28 16:24 45.11439 43.40570 35249 ft 453 kts 347°
2026-04-28 16:24 45.14515 43.39611 34624 ft 453 kts 347°
2026-04-28 16:24 45.17595 43.38678 34002 ft 454 kts 348°
2026-04-28 16:24 45.20694 43.37750 33376 ft 455 kts 348°
2026-04-28 16:25 45.23776 43.36825 32752 ft 453 kts 347°
2026-04-28 16:25 45.26854 43.35891 32133 ft 450 kts 347°
2026-04-28 16:25 45.29907 43.34954 31500 ft 448 kts 347°
2026-04-28 16:25 45.32946 43.34013 30872 ft 446 kts 347°
2026-04-28 16:26 45.35969 43.33071 30240 ft 444 kts 347°
2026-04-28 16:26 45.38973 43.32134 29623 ft 441 kts 347°
2026-04-28 16:26 45.41975 43.31199 28995 ft 439 kts 347°
2026-04-28 16:26 45.44951 43.30272 28372 ft 437 kts 347°
2026-04-28 16:27 45.47915 43.29351 27735 ft 435 kts 347°
2026-04-28 16:27 45.50866 43.28436 27119 ft 433 kts 347°
2026-04-28 16:27 45.56732 43.26615 25864 ft 429 kts 347°
2026-04-28 16:28 45.59642 43.25713 25238 ft 427 kts 347°
2026-04-28 16:28 45.61595 43.25106 24815 ft 425 kts 347°
2026-04-28 16:28 45.65408 43.23917 23985 ft 422 kts 347°
2026-04-28 16:28 45.68280 43.23112 23353 ft 420 kts 354°
2026-04-28 16:29 45.74021 43.24262 22091 ft 417 kts 22°
2026-04-28 16:29 45.78636 43.29109 20843 ft 414 kts 50°
2026-04-28 16:30 45.80469 43.32290 20215 ft 413 kts 51°
2026-04-28 16:30 45.82287 43.35467 19589 ft 412 kts 51°
2026-04-28 16:30 45.84096 43.38637 18960 ft 410 kts 51°
2026-04-28 16:30 45.85904 43.41808 18332 ft 409 kts 51°
2026-04-28 16:31 45.87697 43.44955 17714 ft 408 kts 51°
2026-04-28 16:31 45.89482 43.48091 17089 ft 407 kts 51°
2026-04-28 16:31 45.91277 43.51247 16450 ft 406 kts 51°
2026-04-28 16:31 45.93063 43.54384 15834 ft 404 kts 51°
2026-04-28 16:32 45.94840 43.57505 15202 ft 403 kts 51°
2026-04-28 16:32 45.98409 43.63784 13937 ft 399 kts 51°
2026-04-28 16:32 46.00065 43.66972 13297 ft 396 kts 58°
2026-04-28 16:33 46.01279 43.70508 12837 ft 389 kts 68°
2026-04-28 16:33 46.01616 43.71719 12764 ft 384 kts 68°
2026-04-28 16:33 46.03235 43.77406 12648 ft 356 kts 68°
2026-04-28 16:33 46.04170 43.80631 12571 ft 341 kts 68°
2026-04-28 16:34 46.05064 43.83717 12494 ft 327 kts 68°
2026-04-28 16:34 46.05920 43.86679 12419 ft 315 kts 68°
2026-04-28 16:34 46.06752 43.89572 12341 ft 303 kts 68°
2026-04-28 16:34 46.07542 43.92331 12248 ft 295 kts 68°
2026-04-28 16:35 46.08325 43.95075 11928 ft 294 kts 68°
2026-04-28 16:35 46.09101 43.97799 11577 ft 293 kts 68°
2026-04-28 16:35 46.09873 44.00509 11232 ft 292 kts 68°
2026-04-28 16:35 46.10639 44.03206 10905 ft 290 kts 68°
2026-04-28 16:36 46.11401 44.05889 10583 ft 288 kts 68°
2026-04-28 16:36 46.12156 44.08550 10235 ft 286 kts 68°
2026-04-28 16:36 46.12910 44.11206 9882 ft 285 kts 68°
2026-04-28 16:36 46.13667 44.13877 9531 ft 284 kts 68°
2026-04-28 16:37 46.14407 44.16497 9179 ft 282 kts 68°
2026-04-28 16:37 46.14897 44.18234 8949 ft 281 kts 68°
2026-04-28 16:37 46.15634 44.20840 8594 ft 279 kts 68°
2026-04-28 16:38 46.17087 44.25984 7894 ft 275 kts 68°
2026-04-28 16:38 46.17807 44.28537 7543 ft 274 kts 68°
2026-04-28 16:38 46.18521 44.31078 7191 ft 272 kts 68°
2026-04-28 16:38 46.19229 44.33599 6847 ft 271 kts 68°
2026-04-28 16:39 46.19933 44.36109 6490 ft 269 kts 68°
2026-04-28 16:39 46.20634 44.38608 6139 ft 268 kts 68°
2026-04-28 16:39 46.21330 44.41097 5788 ft 266 kts 68°
2026-04-28 16:39 46.22018 44.43567 5438 ft 265 kts 68°
2026-04-28 16:40 46.22704 44.46030 5087 ft 264 kts 68°
2026-04-28 16:40 46.23388 44.48480 4735 ft 261 kts 68°
2026-04-28 16:40 46.24068 44.50919 4371 ft 259 kts 68°
2026-04-28 16:40 46.24886 44.53228 4030 ft 256 kts 51°
2026-04-28 16:41 46.26202 44.54858 3684 ft 253 kts 27°
2026-04-28 16:41 46.27885 44.55601 3329 ft 250 kts
2026-04-28 16:41 46.29580 44.55909 3135 ft 241 kts
2026-04-28 16:41 46.31211 44.56222 2950 ft 232 kts
2026-04-28 16:42 46.32782 44.56530 2854 ft 222 kts
2026-04-28 16:42 46.34256 44.56398 2813 ft 207 kts 333°
2026-04-28 16:42 46.35237 44.55002 2826 ft 200 kts 289°
2026-04-28 16:42 46.35375 44.53042 2851 ft 192 kts 266°
2026-04-28 16:43 46.35436 44.51201 2838 ft 175 kts 277°
2026-04-28 16:43 46.35635 44.49549 2649 ft 163 kts 282°
2026-04-28 16:43 46.35854 44.47976 2371 ft 156 kts 279°
2026-04-28 16:43 46.36067 44.46507 2238 ft 148 kts 283°
2026-04-28 16:44 46.36278 44.45079 2029 ft 144 kts 277°
2026-04-28 16:44 46.36411 44.43642 1812 ft 144 kts 277°
2026-04-28 16:44 46.36549 44.42220 1540 ft 142 kts 277°
2026-04-28 16:44 46.36687 44.40800 1326 ft 142 kts 277°
2026-04-28 16:45 46.36819 44.39391 1110 ft 141 kts 277°
2026-04-28 16:45 46.36943 44.37966 906 ft 141 kts 276°
2026-04-28 16:45 46.37081 44.36582 719 ft 140 kts 278°
2026-04-28 16:45 46.37212 44.35166 567 ft 140 kts 275°
2026-04-28 16:46 46.37330 44.33784 480 ft 135 kts 278°
2026-04-28 16:46 46.37444 44.32585 472 ft 90 kts 278°
2026-04-28 16:46 46.37497 44.32043 472 ft 41 kts 278°
2026-04-28 16:46 46.37535 44.31647 473 ft 39 kts 278°
2026-04-28 16:47 46.37571 44.31267 472 ft 37 kts 277°
2026-04-28 16:47 46.37605 44.30899 472 ft 37 kts 277°
2026-04-28 16:47 46.37635 44.30576 474 ft 19 kts 277°
2026-04-28 16:47 46.37637 44.30418 471 ft 14 kts 251°
2026-04-28 16:48 46.37659 44.30355 473 ft 5 kts 25°
2026-04-28 16:48 46.37653 44.30437 471 ft 17 kts 99°
2026-04-28 16:48 46.37632 44.30633 474 ft 21 kts 99°
2026-04-28 16:48 46.37605 44.30860 471 ft 24 kts 100°
2026-04-28 16:49 46.37585 44.31111 473 ft 26 kts 96°
2026-04-28 16:49 46.37560 44.31377 472 ft 28 kts 97°
2026-04-28 16:49 46.37535 44.31658 473 ft 29 kts 97°
2026-04-28 16:49 46.37511 44.31936 473 ft 25 kts 98°
2026-04-28 16:50 46.37487 44.32201 472 ft 27 kts 96°
2026-04-28 16:50 46.37463 44.32474 470 ft 29 kts 98°
2026-04-28 16:50 46.37433 44.32759 474 ft 28 kts 98°
2026-04-28 16:50 46.37409 44.32999 469 ft 20 kts 99°
2026-04-28 16:51 46.37398 44.33098 474 ft 7 kts 103°
2026-04-28 16:51 46.37372 44.33143 474 ft 5 kts 153°
2026-04-28 16:51 46.37339 44.33146 474 ft 8 kts 184°
2026-04-28 16:51 46.37276 44.33135 474 ft 9 kts 189°
2026-04-28 16:52 46.37218 44.33120 473 ft 8 kts 189°
2026-04-28 16:52 46.37166 44.33110 473 ft 7 kts 186°
2026-04-28 16:52 46.37122 44.33103 473 ft 6 kts 186°
2026-04-28 16:52 46.37087 44.33097 473 ft 5 kts 186°
2026-04-28 16:53 46.37045 44.33074 473 ft 11 kts 225°
2026-04-28 16:53 46.37018 44.32981 472 ft 8 kts 215°
2026-04-28 16:53 46.36994 44.33006 473 ft 4 kts 105°
2026-04-28 16:53 46.36993 44.33014 473 ft 0 kts 99°